Starlink 30383

operational
NORAD ID: 57773 Int'l Des: 2023-134 Owner: SPXS Country: US Constellation: starlink
LEOCIRCULAR

Über Starlink 30383

Beschreibung wird geladen...

Live-Position

3D-Globus wird geladen...

Nächste Überflüge

Höhenverlauf

Altitude vs Time

uPlot chart will show altitude changes over time

Zweizeiliger Elementsatz

1 57773U 23134C 25353.82509221 -.00000120 00000-0 61867-5 0 9996
2 57773 43.0049 271.8062 0001303 271.0847 88.9846 15.02534571127458
Epoch: 19. Dez. 2025 • Age: 11 hours

Aktueller Status

Höhe 560.1 km
Geschwindigkeit 7.59 km/s
Subsatellitenpunkt 29.14°N, 109.02°E
Startdatum 4. Sept. 2023
Alter 2.2 years
Typ internet

Technische Details

Klassifizierung Payload
Masse 730.00 kg
Trockenmasse 700.00 kg
Gesamtmasse 730.00 kg
Länge 0.30 m
Durchmesser 4.10 m
Spannweite 29.00 m
Form Box + pan
Hersteller SPXS
Bus-Typ Starlink V2M
Phasenstatus In Orbit
Besitzer/Staat SPXS/US

Große Konstellationen

Loading constellations...